User: anonymous   Login
Location: Unspecified
(0.0000°N, 0.0000°E)
Time: 21:56:46
(UTC+00:00)
Language:

STARLINK-34479 - Orbit

View from above orbital plane
View from above orbital plane
View from above satellite
View from above satellite

Ground track
Ground track

The orbit is defined by the following mean orbital elements,

1 64365U          26145.57671742 +.00000000 +00000-0 +21292-3 0 00003
2 64365  70.0005 200.7994 0003911 267.4306  92.6405 14.98336103    05
Epoch (UTC): 25 May 2026 13:50:28
Eccentricity: 0.0003911
inclination: 70.0005°
perigee height: 569 km
apogee height: 575 km
right ascension of ascending node: 200.7994°
argument of perigee: 267.4306°
revolutions per day: 14.98336103
mean anomaly at epoch: 92.6405°

The dashed part of the orbit path shows where the satellite is in the earth's shadow,  

DLR